| time (UTC) | temp F | wind direction | speed MPH | gust MPH | rain 1hr in | rain 24hr in | rain mn in | humidity % | barometer mb |
| 20260503212019 | 46 | 340 | 7.0 | 10.0 | 0.00 | 0.00 | 0.00 | 48 | 1018.0 |
| 20260503211018 | 46 | 340 | 7.0 | 11.0 | 0.00 | 0.00 | 0.00 | 48 | 1018.0 |
| 20260503210019 | 46 | 343 | 7.0 | 11.0 | 0.00 | 0.00 | 0.00 | 48 | 1017.9 |
| 20260503205019 | 47 | 352 | 7.0 | 11.0 | 0.00 | 0.00 | 0.00 | 47 | 1017.9 |
| 20260503204019 | 47 | 340 | 6.0 | 11.0 | 0.00 | 0.00 | 0.00 | 47 | 1017.9 |
| 20260503203019 | 47 | 320 | 6.0 | 10.0 | 0.00 | 0.00 | 0.00 | 46 | 1017.9 |
| 20260503202018 | 48 | 337 | 6.0 | 11.0 | 0.00 | 0.00 | 0.00 | 45 | 1017.8 |
| 20260503201019 | 48 | 330 | 6.0 | 10.0 | 0.00 | 0.00 | 0.00 | 45 | 1017.9 |
| 20260503200019 | 48 | 333 | 6.0 | 9.0 | 0.00 | 0.00 | 0.00 | 44 | 1017.8 |
| 20260503195019 | 48 | 320 | 6.0 | 11.0 | 0.00 | 0.00 | 0.00 | 44 | 1017.8 |
| 20260503194019 | 48 | 342 | 6.0 | 10.0 | 0.00 | 0.00 | 0.00 | 44 | 1017.7 |
| 20260503193019 | 48 | 339 | 6.0 | 11.0 | 0.00 | 0.00 | 0.00 | 44 | 1017.6 |
| 20260503192019 | 48 | 330 | 6.0 | 10.0 | 0.00 | 0.00 | 0.00 | 44 | 1017.6 |
| 20260503191019 | 48 | 321 | 6.0 | 10.0 | 0.00 | 0.00 | 0.00 | 44 | 1017.5 |
| 20260503190019 | 49 | 324 | 6.0 | 12.0 | 0.00 | 0.00 | 0.00 | 43 | 1017.4 |
| 20260503185019 | 49 | 336 | 5.0 | 11.0 | 0.00 | 0.00 | 0.00 | 42 | 1017.3 |
| 20260503184019 | 50 | 327 | 5.0 | 9.0 | 0.00 | 0.00 | 0.00 | 42 | 1017.2 |
| 20260503183019 | 50 | 314 | 5.0 | 9.0 | 0.00 | 0.00 | 0.00 | 42 | 1017.1 |
| 20260503182019 | 50 | 331 | 5.0 | 9.0 | 0.00 | 0.00 | 0.00 | 41 | 1017.0 |
| 20260503181019 | 51 | 333 | 4.0 | 7.0 | 0.00 | 0.00 | 0.00 | 40 | 1016.9 |
| 20260503180018 | 51 | 327 | 4.0 | 7.0 | 0.00 | 0.00 | 0.00 | 40 | 1016.8 |
| 20260503175018 | 52 | 338 | 5.0 | 7.0 | 0.00 | 0.00 | 0.00 | 40 | 1016.7 |
| 20260503174019 | 53 | 348 | 5.0 | 9.0 | 0.00 | 0.00 | 0.00 | 39 | 1016.5 |
| 20260503173019 | 54 | 352 | 5.0 | 10.0 | 0.00 | 0.00 | 0.00 | 38 | 1016.4 |
| 20260503172019 | 56 | 330 | 3.0 | 5.0 | 0.00 | 0.00 | 0.00 | 37 | 1016.4 |
| 20260503171019 | 58 | 257 | 0.0 | 2.0 | 0.00 | 0.00 | 0.00 | 38 | 1016.2 |
| 20260503131019 | 70 | 216 | 2.0 | 5.0 | 0.00 | 0.00 | 0.00 | 43 | 1016.7 |
| 20260503081019 | 58 | 177 | 2.0 | 3.0 | 0.00 | 0.00 | 0.00 | 44 | 1018.6 |
| 20260503072019 | 59 | 359 | 6.0 | 13.0 | 0.00 | 0.00 | 0.00 | 37 | 1018.1 |
| 20260503071019 | 59 | 350 | 6.0 | 13.0 | 0.00 | 0.00 | 0.00 | 37 | 1018.0 |
| 20260503055019 | 51 | 349 | 7.0 | 13.0 | 0.00 | 0.00 | 0.00 | 53 | 1017.4 |
| 20260503054019 | 51 | 344 | 9.0 | 13.0 | 0.00 | 0.00 | 0.00 | 54 | 1017.3 |
| 20260503053019 | 51 | 351 | 7.0 | 13.0 | 0.00 | 0.00 | 0.00 | 53 | 1017.2 |
| 20260503052019 | 50 | 350 | 7.0 | 12.0 | 0.00 | 0.00 | 0.00 | 55 | 1017.2 |
| 20260503051019 | 50 | 354 | 6.0 | 13.0 | 0.00 | 0.00 | 0.00 | 55 | 1017.2 |
| 20260503050019 | 49 | 343 | 6.0 | 11.0 | 0.00 | 0.00 | 0.00 | 56 | 1017.1 |
| 20260503045019 | 49 | 346 | 6.0 | 12.0 | 0.00 | 0.00 | 0.00 | 55 | 1017.0 |
| 20260503044019 | 49 | 345 | 6.0 | 10.0 | 0.00 | 0.00 | 0.00 | 55 | 1017.0 |
| 20260503043019 | 49 | 350 | 7.0 | 12.0 | 0.00 | 0.00 | 0.00 | 55 | 1017.0 |
| 20260503042019 | 49 | 349 | 9.0 | 13.0 | 0.00 | 0.00 | 0.00 | 54 | 1016.8 |
| 20260503041019 | 49 | 348 | 9.0 | 14.0 | 0.00 | 0.00 | 0.00 | 55 | 1016.7 |
| 20260503040018 | 49 | 352 | 8.0 | 12.0 | 0.00 | 0.00 | 0.00 | 56 | 1016.6 |
| 20260503035019 | 49 | 355 | 8.0 | 13.0 | 0.00 | 0.00 | 0.00 | 56 | 1016.4 |
| 20260503034019 | 49 | 357 | 6.0 | 13.0 | 0.00 | 0.01 | 0.00 | 55 | 1016.3 |
| 20260503033019 | 48 | 343 | 7.0 | 13.0 | 0.00 | 0.01 | 0.00 | 58 | 1015.9 |
| 20260503032019 | 47 | 346 | 7.0 | 11.0 | 0.00 | 0.01 | 0.00 | 59 | 1015.8 |
| 20260503031019 | 45 | 333 | 3.0 | 6.0 | 0.00 | 0.01 | 0.00 | 64 | 1016.0 |
| 20260503030019 | 45 | 249 | 1.0 | 3.0 | 0.00 | 0.01 | 0.00 | 64 | 1016.1 |
| 20260503025019 | 45 | 249 | 0.0 | 1.0 | 0.00 | 0.02 | 0.00 | 64 | 1016.3 |
| 20260503024019 | 44 | 233 | 1.0 | 2.0 | 0.00 | 0.05 | 0.00 | 63 | 1016.3 |
| 20260503023018 | 44 | 320 | 3.0 | 4.0 | 0.00 | 0.09 | 0.00 | 63 | 1016.3 |
| 20260503022019 | 44 | 340 | 4.0 | 8.0 | 0.00 | 0.11 | 0.00 | 63 | 1016.5 |
| 20260503021019 | 44 | 340 | 4.0 | 8.0 | 0.00 | 0.14 | 0.00 | 64 | 1016.6 |
| 20260503020019 | 44 | 296 | 2.0 | 4.0 | 0.00 | 0.14 | 0.00 | 64 | 1016.6 |
| 20260503015019 | 45 | 332 | 2.0 | 4.0 | 0.00 | 0.14 | 0.00 | 63 | 1016.7 |
| 20260503014019 | 45 | 348 | 3.0 | 6.0 | 0.00 | 0.14 | 0.00 | 62 | 1016.7 |
| 20260503013019 | 46 | 214 | 1.0 | 2.0 | 0.00 | 0.14 | 0.00 | 61 | 1016.6 |
| 20260503012019 | 46 | 180 | 0.0 | 1.0 | 0.00 | 0.14 | 0.00 | 60 | 1016.7 |
| 20260503011019 | 46 | 200 | 1.0 | 3.0 | 0.00 | 0.14 | 0.00 | 61 | 1016.7 |
| 20260503010019 | 45 | 227 | 0.0 | 2.0 | 0.00 | 0.14 | 0.00 | 61 | 1016.8 |
| 20260503005019 | 46 | 228 | 1.0 | 2.0 | 0.00 | 0.14 | 0.00 | 61 | 1017.0 |
| 20260503004019 | 46 | 225 | 0.0 | 2.0 | 0.00 | 0.14 | 0.00 | 60 | 1017.0 |
| 20260503003018 | 46 | 256 | 1.0 | 1.0 | 0.00 | 0.14 | 0.00 | 60 | 1017.0 |
| 20260503002019 | 46 | 295 | 1.0 | 3.0 | 0.00 | 0.14 | 0.00 | 61 | 1017.0 |
| 20260503001019 | 46 | 267 | 1.0 | 2.0 | 0.00 | 0.14 | 0.00 | 61 | 1016.9 |
| 20260503000019 | 47 | 281 | 1.0 | 4.0 | 0.00 | 0.14 | 0.00 | 59 | 1016.9 |
| 20260502235019 | 47 | 313 | 2.0 | 5.0 | 0.00 | 0.14 | 0.00 | 58 | 1016.9 |
| 20260502234018 | 48 | 335 | 3.0 | 5.0 | 0.00 | 0.14 | 0.00 | 57 | 1016.9 |
| 20260502233019 | 48 | 315 | 3.0 | 5.0 | 0.00 | 0.14 | 0.00 | 57 | 1017.1 |
| 20260502232019 | 47 | 317 | 2.0 | 5.0 | 0.00 | 0.14 | 0.00 | 58 | 1017.3 |
| 20260502231019 | 47 | 340 | 3.0 | 7.0 | 0.00 | 0.14 | 0.00 | 59 | 1017.5 |
| 20260502230018 | 47 | 315 | 3.0 | 6.0 | 0.00 | 0.15 | 0.00 | 58 | 1017.5 |
| 20260502225018 | 48 | 260 | 2.0 | 4.0 | 0.00 | 0.15 | 0.00 | 57 | 1017.7 |
| 20260502224019 | 47 | 257 | 2.0 | 4.0 | 0.00 | 0.15 | 0.00 | 59 | 1017.8 |
| 20260502223019 | 48 | 272 | 0.0 | 1.0 | 0.00 | 0.15 | 0.00 | 57 | 1017.8 |
| 20260502222018 | 47 | 315 | 2.0 | 4.0 | 0.00 | 0.15 | 0.00 | 58 | 1017.8 |
| 20260502221019 | 47 | 252 | 2.0 | 3.0 | 0.00 | 0.15 | 0.00 | 58 | 1017.9 |
| 20260502220019 | 49 | 278 | 1.0 | 3.0 | 0.00 | 0.15 | 0.00 | 54 | 1017.9 |
| 20260502215019 | 49 | 321 | 3.0 | 5.0 | 0.00 | 0.15 | 0.00 | 53 | 1017.8 |
| 20260502214019 | 49 | 325 | 2.0 | 6.0 | 0.00 | 0.15 | 0.00 | 54 | 1017.8 |
| 20260502213019 | 48 | 320 | 3.0 | 6.0 | 0.00 | 0.15 | 0.00 | 54 | 1017.8 |